Regional Weather Roundup
Issued by NWS

Home | Current Version | Previous Version | Text Only | Print | Product List | Glossary On
Versions: 1 2 3 4 5 6 7 8 9 10 11 12 13 14 15 16 17 18 19 20 21 22 23 24 25 26 27 28 29 30 31 32 33 34 35 36 37 38 39 40 41 42 43 44 45 46 47 48 49 50
000
ASUS45 KBOU 050910
RWRCO

WEATHER ROUNDUP FOR COLORADO
NATIONAL WEATHER SERVICE DENVER/BOULDER CO
300 AM MDT SUN JUL 05 2015

NOTE: "FAIR" INDICATES FEW OR NO CLOUDS BELOW 12000 FEET WITH NO
SIGNIFICANT WEATHER AND/OR OBSTRUCTIONS TO VISIBILITY.

COZ001>005-013-030-031-051000-
...NORTHWEST COLORADO...

CITY           SKY/WX    TMP DP  RH WIND       PRES   REMARKS
CRAIG          CLOUDY    61  54  77 CALM      30.13R
HAYDEN         CLOUDY    61  46  59 S5        30.15R
MEEKER         CLOUDY    64  50  60 S3        30.16R
MOUNT WERNER   NOT AVBL
STEAMBOAT SPGS CLOUDY    54  46  74 CALM      30.16F
WALDEN         MOCLDY    50  41  71 SE7       30.24F
$$

COZ006>008-011-051000-
...WEST CENTRAL VALLEYS...

CITY           SKY/WX    TMP DP  RH WIND       PRES   REMARKS
GRAND JUNCTION CLOUDY    65  60  84 N22       30.10R
MONTROSE       CLOUDY    72  51  47 N10       30.16S
EAGLE          CLOUDY    61  46  59 CALM      30.20S
RIFLE          CLOUDY    65  58  78 S5        30.13R
DELTA          CLOUDY    76  53  44 W10G16    30.11F
NUCLA          CLOUDY    63  59  88 CALM      30.24F
$$

COZ017>023-064>068-051000-
...SOUTHWEST COLORADO...

CITY           SKY/WX    TMP DP  RH WIND       PRES   REMARKS
DURANGO        MOCLDY    58  57  97 CALM      30.22S
CORTEZ         PTCLDY    64  57  78 NE3       30.20F
PAGOSA SPRINGS MOCLDY    56  55  97 CALM      30.28S
TELLURIDE      LGT RAIN  55  51  87 W6        30.41S
WOLF CREEK PAS NOT AVBL
$$

COZ009-010-012-014-032>034-037-058>063-051000-
...CENTRAL COLORADO...

CITY           SKY/WX    TMP DP  RH WIND       PRES   REMARKS
ASPEN          CLOUDY    59  48  67 N6        30.24S
BUENA VISTA    MOCLDY    53  47  81 CALM      30.26F
COPPER MTN     MOCLDY    54  37  54 S14       30.56F
BERTHOUD PASS  FAIR      45  36  70 W15G23    30.60F
COTTONWOOD PAS NOT AVBL
GUNNISON       MOCLDY    55  46  71 CALM      30.30F
KREMMLING      MOCLDY    54  46  76 CALM      30.24S
LEADVILLE      MOCLDY    47  44  90 NE6       30.39F
MONARCH PASS   CLOUDY    46  37  71 W21       30.64F
SALIDA         MOCLDY    61  49  65 NW8       30.29F
SUNLIGHT       CLOUDY    54  46  76 CALM      30.49F
WILKERSON PASS PTCLDY    50  39  66 W10G16    30.51F
$$

COZ069>075-051000-
...SAN LUIS VALLEY/SANGRE DE CRISTO MOUNTAINS...

CITY           SKY/WX    TMP DP  RH WIND       PRES   REMARKS
ALAMOSA        PTCLDY    51  48  89 SW5       30.25S
LA VETA PASS   PTCLDY    48  37  66 MISG      30.40F
SAGUACHE       CLOUDY    57  50  77 NW14      30.27F
$$

COZ035-036-038>040-051000-
...NORTHERN COLORADO FRONT RANGE...

CITY           SKY/WX    TMP DP  RH WIND       PRES   REMARKS
DENVER INTL AP MOCLDY    69  50  50 SW12      29.98S
DMNS CITY PARK   N/A     68  51  55 SE8       29.98F
AURORA         PTCLDY    65  51  59 S9        30.01F
FRONT RANGE AP PTCLDY    70  50  49 SW12      30.00S
ERIE MUNI ARPT PTCLDY    62  52  67 SW3       29.97S
BOULDER MUN AP PTCLDY    70  45  40 W5        29.97F
CENTENNIAL     MOCLDY    69  48  47 W9        30.03S
BROOMFIELD     PTCLDY    66  50  55 W3        30.01S
FORT COLLINS   CLEAR     64  54  68 CALM      29.97S
LONGMONT       CLEAR     63  54  71 CALM      29.98F
$$

COZ041-046-047-076>085-087-088-051000-
...PIKES PEAK/PALMER DIVIDE AND SOUTHERN FOOTHILLS...

CITY           SKY/WX    TMP DP  RH WIND       PRES   REMARKS
COLO. SPRINGS  MOCLDY    65  49  56 NE7       30.07F
A. F. ACADEMY  PTCLDY    69  45  41 VRB5      30.08F
ELLICOTT       PTCLDY   N/A N/A N/A N7        30.05F
FALCON         PTCLDY    60  48  64 SE7       30.12F
FORT CARSON    MOCLDY    61  52  71 NW9       30.04F
LIMON          PTCLDY    56  53  90 CALM      30.00S
MONUMENT HILL  NOT AVBL
TRINIDAD       PTCLDY    63  52  67 SW12      30.05F
$$

COZ042>045-048>051-090-091-051000-
...NORTHEAST COLORADO...

CITY           SKY/WX    TMP DP  RH WIND       PRES   REMARKS
GREELEY ARPT   CLEAR     63  57  82 W6        29.94S
AKRON          CLEAR     66  53  63 SW7       29.93F
BURLINGTON     CLEAR     64  58  80 S7        29.92S
WRAY           PTCLDY    70  59  67 CALM      29.89S
STERLING       CLEAR     63  55  77 SW6         N/A
HOLYOKE        PTCLDY    64  61  88 SE5       29.88F
FORT MORGAN    CLEAR     60  51  72 CALM      29.94R
$$

COZ086-089-092>099-051000-
...SOUTHEAST COLORADO...

CITY           SKY/WX    TMP DP  RH WIND       PRES   REMARKS
PUEBLO         MOCLDY    68  54  60 CALM      29.96F
LA JUNTA       PTCLDY    72  51  47 SW14      29.92F
LAMAR          PTCLDY    67  58  72 SW5       29.87F
SPRINGFIELD      N/A     66  60  81 SW12      29.96F
$$


USA.gov is the U.S. government's official web portal to all federal, state and local government web resources and services.